EST,Max TemperatureF,Mean TemperatureF,Min TemperatureF,Max Dew PointF,MeanDew PointF,Min DewpointF,Max Humidity, Mean Humidity, Min Humidity, Max Sea Level PressureIn, Mean Sea Level PressureIn, Min Sea Level PressureIn, Max VisibilityMiles, Mean VisibilityMiles, Min VisibilityMiles, Max Wind SpeedMPH, Mean Wind SpeedMPH, Max Gust SpeedMPH,PrecipitationIn, CloudCover, Events, WindDirDegrees
2013-12-1,56,40,24,30,25,20,88,60,32,30.35,30.18,30.02,10,9,6,9,2,12,0.00,1,,219
2013-12-2,59,45,30,36,32,25,92,66,39,30.00,29.90,29.83,10,10,6,8,1,9,0.00,5,,139
2013-12-3,57,46,35,47,41,32,89,75,61,29.97,29.92,29.86,10,8,3,10,5,23,0.06,7,Rain,188
2013-12-4,59,54,49,56,51,46,100,90,80,30.08,30.02,29.96,10,3,0,10,3,29,0.13,8,Fog-Rain,192
2013-12-5,65,61,57,63,60,56,100,94,87,30.10,30.05,30.00,10,3,0,20,9,24,0.04,8,Fog-Rain,206
2013-12-6,76,71,65,63,61,58,93,74,54,30.04,29.98,29.94,10,10,9,29,16,38,T,7,,210
2013-12-7,70,56,41,63,46,32,93,80,66,30.44,30.21,29.99,10,8,2,20,12,25,0.48,8,Rain,28
2013-12-8,41,36,31,31,29,25,92,78,64,30.44,30.38,30.27,10,5,1,21,10,23,0.17,8,Rain,50
2013-12-9,43,38,32,41,36,30,96,93,89,30.25,30.14,30.05,10,4,0,10,5,13,0.29,8,Fog-Rain,231
2013-12-10,50,39,27,43,36,19,100,73,45,30.31,30.03,29.91,10,6,1,22,6,30,0.30,6,Rain,19
2013-12-11,47,35,23,25,20,17,81,57,33,30.45,30.34,30.28,10,10,10,14,5,16,0.00,2,,239
2013-12-12,44,36,27,22,13,6,64,43,22,30.42,30.35,30.28,10,10,10,16,4,26,0.00,0,,319
2013-12-13,49,36,22,26,17,13,74,50,25,30.37,30.32,30.26,10,10,10,14,4,20,0.00,2,,223
2013-12-14,43,39,35,36,32,26,100,77,53,30.27,30.01,29.76,10,6,0,15,5,17,0.83,8,Fog-Rain,46
2013-12-15,49,40,31,38,32,24,100,71,42,30.08,29.87,29.73,10,7,1,22,9,28,T,4,Rain,284
2013-12-16,55,42,28,31,27,23,78,55,32,30.15,30.10,30.06,10,10,10,12,6,18,0.00,3,,232
2013-12-17,61,47,33,34,31,25,82,57,32,30.10,30.01,29.87,10,10,10,28,9,38,0.00,4,,242
2013-12-18,48,38,28,24,15,11,54,38,21,30.27,30.20,30.04,10,10,10,17,6,23,0.00,0,,292
2013-12-19,62,45,28,24,20,18,69,44,19,30.30,30.25,30.19,10,10,10,18,8,24,0.00,2,,214
2013-12-20,64,53,42,50,38,25,77,60,42,30.22,30.17,30.11,10,10,10,22,11,26,0.00,7,,223
2013-12-21,71,60,49,62,54,48,96,81,66,30.12,30.07,29.99,10,9,5,21,11,28,T,6,,207
2013-12-22,73,67,60,66,62,57,100,89,78,30.07,30.02,29.96,10,8,2,24,13,33,0.76,8,Rain,206
2013-12-23,63,52,41,61,53,29,93,78,62,30.17,30.05,29.99,10,8,2,24,9,30,0.97,8,Rain,272
2013-12-24,45,36,26,28,19,10,69,50,30,30.46,30.29,30.16,10,10,10,22,8,28,0.00,3,,349
2013-12-25,38,29,20,16,9,4,63,44,24,30.55,30.46,30.39,10,10,10,9,3,23,0.00,1,,28
2013-12-26,50,36,22,22,18,13,74,53,32,30.37,30.32,30.25,10,10,10,13,5,29,0.00,3,,265
2013-12-27,52,39,25,25,17,13,75,49,22,30.47,30.40,30.36,10,10,10,7,1,12,0.00,2,,272
2013-12-28,55,39,23,40,25,19,89,57,24,30.40,30.31,30.14,10,10,9,10,3,13,0.06,5,Rain,246
2013-12-29,55,48,41,46,40,36,93,82,71,30.09,29.86,29.73,10,7,1,16,7,22,1.10,6,Rain,329
2013-12-30,51,43,34,38,34,30,96,76,56,30.13,30.05,29.94,10,10,10,10,4,13,0.00,7,,335
2013-12-31,50,41,31,33,25,17,100,66,31,30.36,30.23,30.11,10,10,7,21,7,26,T,5,Rain,302